SP5EB-3 Weather Reports


time (UTC)temp
F
wind
direction
speed
knots
gust
knots
rain 1hr
in
rain 24hr
in
rain mn
in
humidity
%
barometer
mb
20260905211154 57 0 0.0 0.0 0.00 0.00 0.00 99 1012.9
20260905210647 57 0 0.0 0.0 0.00 0.00 0.00 99 1012.9
20260905210139 58 0 0.0 0.0 0.00 0.00 0.00 99 1012.8
20260905205631 58 0 0.0 0.0 0.00 0.00 0.00 31 1013.0
20260905205123 58 0 0.0 0.0 0.00 0.00 0.00 1 1012.7
20260905204616 58 0 0.0 0.0 0.00 0.00 0.00 1 1012.7
20260905204108 59 0 0.0 0.0 0.00 0.00 0.00 1 1012.5
20260905203601 59 0 0.0 0.0 0.00 0.00 0.00 1 1012.7
20260905203052 59 0 0.0 0.0 0.00 0.00 0.00 1 1012.4
20260905202545 59 0 0.0 0.0 0.00 0.00 0.00 1 1012.3
20260905201530 59 0 0.0 0.0 0.00 0.00 0.00 1 1012.3
20260905200514 59 0 0.0 0.0 0.00 0.00 0.00 1 1012.3
20260905195458 59 0 0.0 0.0 0.00 0.00 0.00 1 1012.3
20260905194950 59 0 0.0 0.0 0.00 0.00 0.00 1 1012.2
20260905193935 59 0 0.0 0.0 0.00 0.00 0.00 1 1012.1
20260905191904 59 0 0.0 0.0 0.00 0.00 0.00 1 1012.1
20260905191356 59 0 0.0 0.0 0.00 0.00 0.00 1 1012.3
20260905190848 59 0 0.0 0.0 0.00 0.00 0.00 1 1012.4
20260905190341 59 0 0.0 0.0 0.00 0.00 0.00 1 1012.1
20260905185832 59 0 0.0 0.0 0.00 0.00 0.00 1 1012.3
20260905185325 59 0 0.0 0.0 0.00 0.00 0.00 1 1012.1
20260905184817 59 0 0.0 0.0 0.00 0.00 0.00 1 1012.1
20260905183802 59 0 0.0 0.0 0.00 0.00 0.00 1 1012.1
20260905182238 59 0 0.0 0.0 0.00 0.00 0.00 9 1012.4
20260905181730 59 0 0.0 0.0 0.00 0.00 0.00 5 1012.5
20260905181223 59 0 0.0 0.0 0.00 0.00 0.00 1 1012.5
20260905180715 59 0 0.0 0.0 0.00 0.00 0.00 1 1012.5
20260905175659 60 0 0.0 0.0 0.00 0.00 0.00 1 1012.4
20260905175152 60 0 0.0 0.0 0.00 0.00 0.00 1 1012.3
20260905174644 60 0 0.0 0.0 0.00 0.00 0.00 1 1012.3
20260905174136 60 0 0.0 0.0 0.00 0.00 0.00 1 1012.2
20260905173628 60 0 0.0 0.0 0.00 0.00 0.00 99 1012.1
20260905173120 61 0 0.0 0.0 0.00 0.00 0.00 99 1012.2
20260905172612 61 0 0.0 0.0 0.00 0.00 0.00 99 1012.1
20260905172104 61 0 0.0 0.0 0.00 0.00 0.00 99 1012.0
20260905171556 61 0 0.0 0.0 0.00 0.00 0.00 99 1012.0
20260905171048 62 0 0.0 0.0 0.00 0.00 0.00 99 1012.0
20260905170540 62 0 0.0 0.0 0.00 0.00 0.00 99 1012.1
20260905170032 62 0 0.0 0.0 0.00 0.00 0.00 99 1012.0
20260905165524 62 0 0.0 0.0 0.00 0.00 0.00 99 1012.0
20260905165016 62 0 0.0 0.0 0.00 0.00 0.00 99 1012.2
20260905164508 62 0 0.0 0.0 0.00 0.00 0.00 99 1012.1
20260905164000 62 0 0.0 0.0 0.00 0.00 0.00 99 1012.1
20260905163452 62 0 0.0 0.0 0.00 0.00 0.00 99 1012.1
20260905162944 63 0 0.0 0.0 0.00 0.00 0.00 99 1012.2
20260905162435 63 0 0.0 0.0 0.00 0.00 0.00 99 1012.1
20260905161927 64 0 0.0 0.0 0.00 0.00 0.00 99 1012.0
20260905161419 64 0 0.0 0.0 0.00 0.00 0.00 99 1012.0
20260905160403 64 0 0.0 0.0 0.00 0.00 0.00 99 1011.8
20260905155855 64 0 0.0 0.0 0.00 0.00 0.00 99 1011.8
20260905155346 62 0 0.0 0.0 0.00 0.00 0.00 99 1011.8
20260905154838 61 0 0.0 0.0 0.00 0.00 0.00 99 1011.7
20260905154330 61 0 0.0 0.0 0.00 0.00 0.00 99 1011.7
20260905153822 60 0 0.0 0.0 0.00 0.00 0.00 99 1011.7
20260905153315 61 0 0.0 0.0 0.00 0.00 0.00 99 1011.8
20260905152807 61 0 0.0 0.0 0.00 0.00 0.00 99 1011.9
20260905152258 61 0 0.0 0.0 0.00 0.00 0.00 99 1011.9
20260905151750 62 0 0.0 0.0 0.00 0.00 0.00 99 1012.0
20260905151243 62 0 0.0 0.0 0.00 0.00 0.00 99 1012.2
20260905150735 63 0 0.0 0.0 0.00 0.00 0.00 99 1012.1
20260905150227 64 0 0.0 0.0 0.00 0.00 0.00 99 1012.2
20260905145719 65 0 0.0 0.0 0.00 0.00 0.00 99 1012.5
20260905145209 66 0 0.0 0.0 0.00 0.00 0.00 99 1012.3
20260905144701 67 0 0.0 0.0 0.00 0.00 0.00 99 1012.1
20260905144153 68 0 0.0 0.0 0.00 0.00 0.00 99 1011.8
20260905143645 68 0 0.0 0.0 0.00 0.00 0.00 99 1011.6
20260905143136 69 0 0.0 0.0 0.00 0.00 0.00 99 1011.6
20260905142628 70 0 0.0 0.0 0.00 0.00 0.00 99 1011.7
20260905142118 71 0 0.0 0.0 0.00 0.00 0.00 99 1011.3
20260905141609 72 0 0.0 0.0 0.00 0.00 0.00 99 1011.3
20260905141100 73 0 0.0 0.0 0.00 0.00 0.00 99 1011.2
20260905140552 74 0 0.0 0.0 0.00 0.00 0.00 99 1011.2
20260905140043 75 0 0.0 0.0 0.00 0.00 0.00 99 1011.6
20260905135534 74 0 0.0 0.0 0.00 0.00 0.00 99 1011.3
20260905134515 73 0 0.0 0.0 0.00 0.00 0.00 99 1011.0
20260905134006 73 0 0.0 0.0 0.00 0.00 0.00 99 1011.2
20260905133457 73 0 0.0 0.0 0.00 0.00 0.00 99 1011.1
20260905132948 72 0 0.0 0.0 0.00 0.00 0.00 99 1011.2
20260905132439 71 0 0.0 0.0 0.00 0.00 0.00 99 1011.0
20260905131929 71 0 0.0 0.0 0.00 0.00 0.00 99 1011.3
20260905131421 70 0 0.0 0.0 0.00 0.00 0.00 99 1011.9
20260905130912 70 0 0.0 0.0 0.00 0.00 0.00 99 1011.1
20260905130404 70 0 0.0 0.0 0.00 0.00 0.00 99 1011.0
20260905125855 70 0 0.0 0.0 0.00 0.00 0.00 99 1011.1
20260905125347 71 0 0.0 0.0 0.00 0.00 0.00 99 1011.2
20260905124837 70 0 0.0 0.0 0.00 0.00 0.00 99 1011.2
20260905124518 69 0 0.0 0.0 0.00 0.00 0.00 99 1011.1
20260905124328 69 0 0.0 0.0 0.00 0.00 0.00 99 1011.1
20260905123312 68 0 0.0 0.0 0.00 0.00 0.00 99 1011.0
20260905122803 69 0 0.0 0.0 0.00 0.00 0.00 99 1011.1
20260905122255 69 0 0.0 0.0 0.00 0.00 0.00 99 1011.1
20260905121745 70 0 0.0 0.0 0.00 0.00 0.00 99 1011.0
20260905121237 70 0 0.0 0.0 0.00 0.00 0.00 99 1011.0
20260905120728 71 0 0.0 0.0 0.00 0.00 0.00 99 1011.1
20260905120219 71 0 0.0 0.0 0.00 0.00 0.00 99 1011.1
20260905115202 69 0 0.0 0.0 0.00 0.00 0.00 99 1011.0
20260905114653 69 0 0.0 0.0 0.00 0.00 0.00 99 1010.9
20260905114144 68 0 0.0 0.0 0.00 0.00 0.00 99 1011.0
20260905113636 69 0 0.0 0.0 0.00 0.00 0.00 99 1010.9
20260905113127 69 0 0.0 0.0 0.00 0.00 0.00 99 1010.9
20260905112619 68 0 0.0 0.0 0.00 0.00 0.00 99 1011.0
20260905112110 69 0 0.0 0.0 0.00 0.00 0.00 99 1011.0
20260905111052 69 0 0.0 0.0 0.00 0.00 0.00 99 1010.9
20260905110544 69 0 0.0 0.0 0.00 0.00 0.00 99 1010.8
20260905110035 68 0 0.0 0.0 0.00 0.00 0.00 99 1011.0
20260905105527 68 0 0.0 0.0 0.00 0.00 0.00 99 1011.3
20260905104509 68 0 0.0 0.0 0.00 0.00 0.00 99 1010.7
20260905104001 67 0 0.0 0.0 0.00 0.00 0.00 99 1010.7
20260905103453 67 0 0.0 0.0 0.00 0.00 0.00 99 1010.7
20260905102436 67 0 0.0 0.0 0.00 0.00 0.00 99 1010.5
20260905101928 67 0 0.0 0.0 0.00 0.00 0.00 99 1010.4
20260905101419 66 0 0.0 0.0 0.00 0.00 0.00 99 1010.3
20260905100910 66 0 0.0 0.0 0.00 0.00 0.00 99 1010.2
20260905100402 66 0 0.0 0.0 0.00 0.00 0.00 99 1010.3
20260905095854 66 0 0.0 0.0 0.00 0.00 0.00 99 1010.4
20260905095346 66 0 0.0 0.0 0.00 0.00 0.00 99 1010.2
20260905094838 65 0 0.0 0.0 0.00 0.00 0.00 99 1010.5
20260905094328 65 0 0.0 0.0 0.00 0.00 0.00 99 1010.3
20260905093312 64 0 0.0 0.0 0.00 0.00 0.00 99 1010.6
20260905092804 64 0 0.0 0.0 0.00 0.00 0.00 99 1010.3
20260905092256 64 0 0.0 0.0 0.00 0.00 0.00 99 1010.1
20260905091748 64 0 0.0 0.0 0.00 0.00 0.00 99 1010.1
20260905091239 64 0 0.0 0.0 0.00 0.00 0.00 99 1010.4
20260905090731 64 0 0.0 0.0 0.00 0.00 0.00 99 1010.1
20260905085207 64 0 0.0 0.0 0.00 0.00 0.00 99 1010.3
20260905084659 64 0 0.0 0.0 0.00 0.00 0.00 99 1010.0
20260905084150 64 0 0.0 0.0 0.00 0.00 0.00 99 1010.0
20260905083642 64 0 0.0 0.0 0.00 0.00 0.00 99 1010.2
20260905083134 64 0 0.0 0.0 0.00 0.00 0.00 99 1009.8
20260905082118 64 0 0.0 0.0 0.00 0.00 0.00 99 1009.8
20260905081610 64 0 0.0 0.0 0.00 0.00 0.00 99 1010.0
20260905081100 63 0 0.0 0.0 0.00 0.00 0.00 99 1009.5
20260905080553 63 0 0.0 0.0 0.00 0.00 0.00 99 1009.5
20260905080045 63 0 0.0 0.0 0.00 0.00 0.00 99 1009.8
20260905075537 63 0 0.0 0.0 0.00 0.00 0.00 99 1009.4
20260905075029 63 0 0.0 0.0 0.00 0.00 0.00 99 1009.5
20260905074521 63 0 0.0 0.0 0.00 0.00 0.00 99 1009.6
20260905074012 63 0 0.0 0.0 0.00 0.00 0.00 99 1009.4
20260905073504 63 0 0.0 0.0 0.00 0.00 0.00 99 1009.6
20260905072957 62 0 0.0 0.0 0.00 0.00 0.00 99 1009.4
20260905072448 62 0 0.0 0.0 0.00 0.00 0.00 99 1009.4
20260905071941 62 0 0.0 0.0 0.00 0.00 0.00 99 1009.5
20260905071433 62 0 0.0 0.0 0.00 0.00 0.00 99 1009.2
20260905070924 62 0 0.0 0.0 0.00 0.00 0.00 1 1009.4
20260905070416 62 0 0.0 0.0 0.00 0.00 0.00 1 1009.1
20260905065908 62 0 0.0 0.0 0.00 0.00 0.00 1 1009.4
20260905065400 62 0 0.0 0.0 0.00 0.00 0.00 1 1009.6
20260905064852 62 0 0.0 0.0 0.00 0.00 0.00 1 1008.8
20260905064344 62 0 0.0 0.0 0.00 0.00 0.00 1 1008.9
20260905064057 62 0 0.0 0.0 0.00 0.00 0.00 1 1008.5
20260905063835 62 0 0.0 0.0 0.00 0.00 0.00 1 1008.7
20260905063328 62 0 0.0 0.0 0.00 0.00 0.00 1 1008.5
20260905062820 62 0 0.0 0.0 0.00 0.00 0.00 1 1008.5
20260905062312 61 0 0.0 0.0 0.00 0.00 0.00 1 1008.5
20260905061804 61 0 0.0 0.0 0.00 0.00 0.00 1 1008.5
20260905060748 61 0 0.0 0.0 0.00 0.00 0.00 1 1008.3
20260905060240 61 0 0.0 0.0 0.00 0.00 0.00 1 1008.3
20260905055733 60 0 0.0 0.0 0.00 0.00 0.00 1 1008.3
20260905055225 60 0 0.0 0.0 0.00 0.00 0.00 1 1008.4
20260905054209 60 0 0.0 0.0 0.00 0.00 0.00 1 1008.1
20260905053153 60 0 0.0 0.0 0.00 0.00 0.00 1 1008.1
20260905052645 60 0 0.0 0.0 0.00 0.00 0.00 1 1008.3
20260905052137 60 0 0.0 0.0 0.00 0.00 0.00 1 1007.8
20260905051630 60 0 0.0 0.0 0.00 0.00 0.00 1 1007.8
20260905051122 60 0 0.0 0.0 0.00 0.00 0.00 1 1008.0
20260905050613 60 0 0.0 0.0 0.00 0.00 0.00 1 1007.8
20260905050106 60 0 0.0 0.0 0.00 0.00 0.00 1 1007.8
20260905045558 60 0 0.0 0.0 0.00 0.00 0.00 1 1007.7
20260905044543 60 0 0.0 0.0 0.00 0.00 0.00 1 1007.7
20260905044035 60 0 0.0 0.0 0.00 0.00 0.00 1 1007.6
20260905043526 60 0 0.0 0.0 0.00 0.00 0.00 1 1007.5
20260905043018 60 0 0.0 0.0 0.00 0.00 0.00 1 1007.5
20260905042511 61 0 0.0 0.0 0.00 0.00 0.00 1 1007.3
20260905042003 61 0 0.0 0.0 0.00 0.00 0.00 1 1007.3
20260905041456 61 0 0.0 0.0 0.00 0.00 0.00 99 1007.1
20260905040948 61 0 0.0 0.0 0.00 0.00 0.00 99 1007.1
20260905040439 61 0 0.0 0.0 0.00 0.00 0.00 99 1007.0
20260905035931 62 0 0.0 0.0 0.00 0.00 0.00 1 1006.9
20260905035423 62 0 0.0 0.0 0.00 0.00 0.00 99 1006.9
20260905034915 62 0 0.0 0.0 0.00 0.00 0.00 99 1006.8
20260905034407 62 0 0.0 0.0 0.00 0.00 0.00 41 1006.5
20260905033859 62 0 0.0 0.0 0.00 0.00 0.00 99 1006.3
20260905033351 62 0 0.0 0.0 0.00 0.00 0.00 99 1006.1
20260905032843 62 0 0.0 0.0 0.00 0.00 0.00 99 1006.1
20260905032335 62 0 0.0 0.0 0.00 0.00 0.00 99 1006.0
20260905031827 62 0 0.0 0.0 0.00 0.00 0.00 1 1005.8
20260905031319 62 0 0.0 0.0 0.00 0.00 0.00 1 1005.8
20260905030811 62 0 0.0 0.0 0.00 0.00 0.00 1 1005.7
20260905030302 62 0 0.0 0.0 0.00 0.00 0.00 1 1005.6
20260905025755 62 0 0.0 0.0 0.00 0.00 0.00 1 1005.9
20260905025247 62 0 0.0 0.0 0.00 0.00 0.00 1 1005.7
20260905024739 62 0 0.0 0.0 0.00 0.00 0.00 1 1005.9
20260905024231 62 0 0.0 0.0 0.00 0.00 0.00 38 1005.6
20260905023723 62 0 0.0 0.0 0.00 0.00 0.00 64 1005.4
20260905023214 62 0 0.0 0.0 0.00 0.00 0.00 99 1005.5
20260905022706 62 0 0.0 0.0 0.00 0.00 0.00 99 1005.6
20260905022158 62 0 0.0 0.0 0.00 0.00 0.00 99 1005.5
20260905021143 62 0 0.0 0.0 0.00 0.00 0.00 99 1005.8
20260905020635 62 0 0.0 0.0 0.00 0.00 0.00 99 1005.5
20260905020126 62 0 0.0 0.0 0.00 0.00 0.00 99 1005.4
20260905015618 62 0 0.0 0.0 0.00 0.00 0.00 99 1005.3
20260905015110 63 0 0.0 0.0 0.00 0.00 0.00 99 1005.2
20260905014602 63 0 0.0 0.0 0.00 0.00 0.00 99 1005.3
20260905014054 63 0 0.0 0.0 0.00 0.00 0.00 99 1004.8
20260905013546 63 0 0.0 0.0 0.00 0.00 0.00 99 1004.9
20260905013037 63 0 0.0 0.0 0.00 0.00 0.00 99 1005.1
20260905012529 63 0 0.0 0.0 0.00 0.00 0.00 99 1005.1
20260905012021 63 0 0.0 0.0 0.00 0.00 0.00 99 1005.1
20260905011514 63 0 0.0 0.0 0.00 0.00 0.00 99 1005.5
20260905011006 63 0 0.0 0.0 0.00 0.00 0.00 99 1005.1
20260905010458 63 0 0.0 0.0 0.00 0.00 0.00 99 1005.1
20260905005949 63 0 0.0 0.0 0.00 0.00 0.00 99 1004.8
20260905005441 64 0 0.0 0.0 0.00 0.00 0.00 99 1004.8
20260905004933 64 0 0.0 0.0 0.00 0.00 0.00 99 1004.5
20260905004425 64 0 0.0 0.0 0.00 0.00 0.00 99 1004.4
20260905003917 64 0 0.0 0.0 0.00 0.00 0.00 99 1004.3
20260905003409 64 0 0.0 0.0 0.00 0.00 0.00 1 1004.7
20260905002900 64 0 0.0 0.0 0.00 0.00 0.00 99 1004.2
20260905001844 64 0 0.0 0.0 0.00 0.00 0.00 99 1004.3
20260905001336 64 0 0.0 0.0 0.00 0.00 0.00 1 1004.3
20260905000828 64 0 0.0 0.0 0.00 0.00 0.00 99 1004.1
20260905000320 64 0 0.0 0.0 0.00 0.00 0.00 99 1004.1
20260904235811 64 0 0.0 0.0 0.00 0.00 0.00 99 1004.3
20260904235306 64 0 0.0 0.0 0.00 0.00 0.00 99 1004.2
20260904234755 64 0 0.0 0.0 0.00 0.00 0.00 1 1004.1
20260904234247 64 0 0.0 0.0 0.00 0.00 0.00 99 1004.1
20260904233231 64 0 0.0 0.0 0.00 0.00 0.00 1 1004.1
20260904232721 64 0 0.0 0.0 0.00 0.00 0.00 99 1004.1
20260904232214 64 0 0.0 0.0 0.00 0.00 0.00 1 1003.9
20260904231706 64 0 0.0 0.0 0.00 0.00 0.00 1 1003.8
20260904231158 64 0 0.0 0.0 0.00 0.00 0.00 1 1003.8
20260904230649 64 0 0.0 0.0 0.00 0.00 0.00 99 1003.8
20260904225124 64 0 0.0 0.0 0.00 0.00 0.00 59 1003.8
20260904224616 64 0 0.0 0.0 0.00 0.00 0.00 96 1003.8
20260904223600 64 0 0.0 0.0 0.00 0.00 0.00 78 1003.8
20260904223052 64 0 0.0 0.0 0.00 0.00 0.00 47 1003.1
20260904222543 64 0 0.0 0.0 0.00 0.00 0.00 8 1003.2
20260904222035 64 0 0.0 0.0 0.00 0.00 0.00 1 1003.0
20260904221527 64 0 0.0 0.0 0.00 0.00 0.00 1 1003.2
20260904221019 64 0 0.0 0.0 0.00 0.00 0.00 1 1003.4
20260904220003 64 0 0.0 0.0 0.00 0.00 0.00 99 1003.3
20260904215455 63 0 0.0 0.0 0.00 0.00 0.00 99 1003.5
20260904214946 63 0 0.0 0.0 0.00 0.00 0.00 99 1003.6
20260904214438 63 0 0.0 0.0 0.00 0.00 0.00 29 1003.6
20260904213930 63 0 0.0 0.0 0.00 0.00 0.00 1 1003.7
20260904213422 63 0 0.0 0.0 0.00 0.00 0.00 99 1003.6
20260904212914 63 0 0.0 0.0 0.00 0.00 0.00 99 1003.5
20260904212405 63 0 0.0 0.0 0.00 0.00 0.00 99 1003.1
20260904211857 63 0 0.0 0.0 0.00 0.00 0.00 99 1003.2